When you browse on this site, cookies collect data to enhance your experience and personalize the content and advertising you see.
Visit our Privacy Policy to learn more. By continuing to use the site, you agree to this use of cookies and data.
  • In Portugal
  • List of Countries
  • For 7 days
  • Water Temperature
  • Satellite Maps
  • Weather Map
  • Weather Widgets
  • user-avatar
    Login

    Hourly Weather Rakowice

    Today, 15 December, Saturday

    Time Temperature Precipitation Wind Pressure Humidity
    00:00 -4°C° 0 mm 2 mps 752 mmHg 86%
    01:00 -2°C° 0 mm 1 mps 752 mmHg 89%
    02:00 -2°C° 0 mm 1 mps 752 mmHg 89%
    03:00 -4°C° 0 mm 2 mps 752 mmHg 90%
    04:00 -4°C° 0 mm 2 mps 752 mmHg 90%
    05:00 -4°C° 0 mm 2 mps 753 mmHg 91%
    06:00 -4°C° 0 mm 2 mps 753 mmHg 92%
    07:00 -1°C° 0 mm 1 mps 753 mmHg 92%
    08:00 -3°C° 0 mm 2 mps 753 mmHg 91%
    09:00 -2°C° 0 mm 2 mps 753 mmHg 89%
    10:00 -2°C° 0 mm 2 mps 753 mmHg 88%
    11:00 -1°C° 0 mm 2 mps 753 mmHg 84%
    12:00 -1°C° 0 mm 3 mps 753 mmHg 80%
    13:00 -1°C° 0 mm 3 mps 752 mmHg 77%
    14:00 -1°C° 0 mm 2 mps 752 mmHg 79%
    15:00 -2°C° 0 mm 2 mps 752 mmHg 81%
    16:00 -2°C° 0 mm 2 mps 752 mmHg 83%
    17:00 -2°C° 0 mm 2 mps 752 mmHg 85%
    18:00 -3°C° 0 mm 2 mps 751 mmHg 86%
    19:00 -3°C° 0 mm 2 mps 751 mmHg 88%
    20:00 -4°C° 0 mm 2 mps 751 mmHg 89%
    21:00 -4°C° 0 mm 2 mps 751 mmHg 90%
    22:00 -4°C° 0 mm 2 mps 750 mmHg 91%
    23:00 -4°C° 0 mm 2 mps 750 mmHg 91%

    Tomorrow, 16 December, Sunday

    Time Temperature Precipitation Wind Pressure Humidity
    00:00 -4°C° 0 mm 2 mps 749 mmHg 92%
    01:00 -5°C° 0 mm 2 mps 749 mmHg 92%
    02:00 -5°C° 0 mm 2 mps 748 mmHg 92%
    03:00 -5°C° 0 mm 2 mps 748 mmHg 92%
    04:00 -5°C° 0 mm 2 mps 748 mmHg 92%
    05:00 -5°C° 0 mm 2 mps 747 mmHg 92%
    06:00 -5°C° 0 mm 2 mps 747 mmHg 92%
    07:00 -5°C° 0 mm 2 mps 747 mmHg 92%
    08:00 -5°C° 0 mm 2 mps 747 mmHg 89%
    09:00 -4°C° 0 mm 2 mps 746 mmHg 86%
    10:00 -3°C° 0 mm 2 mps 746 mmHg 83%
    11:00 -3°C° 0 mm 2 mps 746 mmHg 79%
    12:00 -2°C° 0 mm 2 mps 746 mmHg 76%
    13:00 -2°C° 0 mm 2 mps 745 mmHg 72%
    14:00 -2°C° 0 mm 2 mps 745 mmHg 74%
    15:00 -3°C° 0 mm 2 mps 745 mmHg 77%
    16:00 -3°C° 0 mm 2 mps 745 mmHg 80%
    17:00 -3°C° 0 mm 2 mps 745 mmHg 79%
    18:00 -3°C° 0 mm 2 mps 745 mmHg 78%
    19:00 -4°C° 0 mm 3 mps 745 mmHg 77%
    20:00 -3°C° 0 mm 2 mps 745 mmHg 78%
    21:00 -3°C° 0 mm 2 mps 745 mmHg 78%
    22:00 -3°C° 0 mm 2 mps 745 mmHg 78%
    23:00 -3°C° 0 mm 2 mps 745 mmHg 79%

    Day after tomorrow, 17 December, Monday

    Time Temperature Precipitation Wind Pressure Humidity
    00:00 -3°C° 0 mm 2 mps 745 mmHg 80%
    01:00 -3°C° 0 mm 2 mps 745 mmHg 80%
    02:00 -2°C° 0 mm 2 mps 746 mmHg 81%
    03:00 -2°C° 0 mm 2 mps 746 mmHg 82%
    04:00 -2°C° 0 mm 2 mps 746 mmHg 83%
    05:00 -2°C° 0 mm 2 mps 746 mmHg 85%
    06:00 -2°C° 0 mm 2 mps 746 mmHg 87%
    07:00 -2°C° 0 mm 2 mps 746 mmHg 89%
    08:00 -2°C° 0 mm 2 mps 747 mmHg 87%
    09:00 -1°C° 0 mm 3 mps 748 mmHg 85%
    10:00 0°C° 0 mm 3 mps 748 mmHg 84%
    11:00 0°C° 0 mm 3 mps 748 mmHg 83%
    12:00 +2°C° 0 mm 2 mps 749 mmHg 82%
    13:00 +2°C° 0 mm 2 mps 749 mmHg 82%
    14:00 +2°C° 0 mm 2 mps 749 mmHg 84%
    15:00 +1°C° 0 mm 2 mps 749 mmHg 87%
    16:00 +1°C° 0 mm 1 mps 750 mmHg 90%
    17:00 -1°C° 0 mm 2 mps 750 mmHg 90%
    18:00 -1°C° 0 mm 2 mps 751 mmHg 90%
    19:00 -2°C° 0 mm 2 mps 751 mmHg 90%
    20:00 -1°C° 0 mm 2 mps 751 mmHg 90%
    21:00 -1°C° 0 mm 2 mps 752 mmHg 89%
    22:00 -1°C° 0 mm 2 mps 752 mmHg 88%
    23:00 -1°C° 0.1 mm 2 mps 752 mmHg 88%

    18 December, Tuesday

    Time Temperature Precipitation Wind Pressure Humidity
    00:00 -1°C° 0.1 mm 2 mps 752 mmHg 89%
    01:00 +1°C° 0.1 mm 2 mps 753 mmHg 89%
    02:00 +1°C° 0.2 mm 2 mps 753 mmHg 89%
    03:00 +2°C° 0.2 mm 1 mps 753 mmHg 90%
    04:00 +2°C° 0.2 mm 1 mps 753 mmHg 91%
    05:00 +2°C° 0.1 mm 1 mps 753 mmHg 91%
    06:00 +1°C° 0.1 mm 1 mps 753 mmHg 92%
    07:00 +1°C° 0.1 mm 1 mps 753 mmHg 92%
    08:00 +2°C° 0 mm 1 mps 754 mmHg 92%
    09:00 +2°C° 0 mm 1 mps 754 mmHg 91%
    10:00 +2°C° 0 mm 1 mps 754 mmHg 91%
    11:00 +3°C° 0 mm 1 mps 754 mmHg 90%
    12:00 +3°C° 0 mm 1 mps 754 mmHg 90%
    13:00 +3°C° 0 mm 0 mps 754 mmHg 90%
    14:00 +2°C° 0 mm 0 mps 754 mmHg 91%
    15:00 +1°C° 0 mm 0 mps 754 mmHg 92%
    16:00 0°C° 0 mm 0 mps 754 mmHg 94%
    17:00 +1°C° 0 mm 1 mps 754 mmHg 93%
    18:00 +1°C° 0 mm 1 mps 754 mmHg 93%
    19:00 -1°C° 0 mm 2 mps 754 mmHg 93%
    20:00 -1°C° 0 mm 2 mps 753 mmHg 93%
    21:00 -2°C° 0 mm 2 mps 753 mmHg 93%
    22:00 -2°C° 0 mm 2 mps 753 mmHg 92%
    23:00 -2°C° 0 mm 2 mps 753 mmHg 92%

    19 December, Wednesday

    Time Temperature Precipitation Wind Pressure Humidity
    00:00 -2°C° 0 mm 2 mps 753 mmHg 92%
    01:00 -2°C° 0 mm 2 mps 753 mmHg 92%
    02:00 -2°C° 0 mm 2 mps 752 mmHg 91%
    03:00 -2°C° 0 mm 3 mps 752 mmHg 90%
    04:00 -2°C° 0 mm 3 mps 752 mmHg 89%
    05:00 -2°C° 0 mm 3 mps 752 mmHg 88%
    06:00 -2°C° 0 mm 3 mps 751 mmHg 87%
    07:00 -2°C° 0 mm 3 mps 751 mmHg 86%
    08:00 -2°C° 0 mm 3 mps 751 mmHg 83%
    09:00 -1°C° 0 mm 3 mps 751 mmHg 80%
    10:00 0°C° 0 mm 3 mps 751 mmHg 77%
    11:00 0°C° 0 mm 3 mps 751 mmHg 76%
    12:00 +1°C° 0 mm 3 mps 751 mmHg 75%
    13:00 +2°C° 0 mm 3 mps 750 mmHg 74%
    14:00 +1°C° 0 mm 3 mps 750 mmHg 77%
    15:00 0°C° 0 mm 3 mps 750 mmHg 80%
    16:00 0°C° 0 mm 3 mps 749 mmHg 83%
    17:00 -1°C° 0 mm 3 mps 749 mmHg 83%
    18:00 -2°C° 0 mm 4 mps 749 mmHg 83%
    19:00 -2°C° 0 mm 4 mps 749 mmHg 83%
    20:00 -2°C° 0 mm 4 mps 749 mmHg 82%
    21:00 -2°C° 0 mm 4 mps 749 mmHg 82%
    22:00 -2°C° 0 mm 4 mps 749 mmHg 81%
    23:00 -2°C° 0 mm 4 mps 749 mmHg 80%

    20 December, Thursday

    Time Temperature Precipitation Wind Pressure Humidity
    00:00 -2°C° 0 mm 4 mps 748 mmHg 80%
    01:00 -2°C° 0 mm 4 mps 748 mmHg 80%
    02:00 -1°C° 0 mm 3 mps 748 mmHg 79%
    03:00 -1°C° 0 mm 3 mps 748 mmHg 79%
    04:00 -1°C° 0 mm 3 mps 748 mmHg 79%
    05:00 -1°C° 0 mm 3 mps 748 mmHg 79%
    06:00 -1°C° 0 mm 3 mps 748 mmHg 80%
    07:00 -2°C° 0 mm 3 mps 748 mmHg 80%
    08:00 -1°C° 0 mm 3 mps 748 mmHg 79%
    09:00 -1°C° 0 mm 3 mps 748 mmHg 78%
    10:00 -1°C° 0 mm 3 mps 749 mmHg 77%
    11:00 -1°C° 0 mm 3 mps 748 mmHg 77%
    12:00 0°C° 0 mm 3 mps 748 mmHg 76%
    13:00 0°C° 0 mm 3 mps 748 mmHg 75%
    14:00 0°C° 0 mm 3 mps 748 mmHg 77%
    15:00 -1°C° 0 mm 3 mps 748 mmHg 78%
    16:00 -1°C° 0 mm 3 mps 748 mmHg 80%
    17:00 -1°C° 0.1 mm 3 mps 749 mmHg 81%
    18:00 -1°C° 0.1 mm 3 mps 749 mmHg 83%
    19:00 -1°C° 0.1 mm 3 mps 749 mmHg 84%
    20:00 -1°C° 0.2 mm 3 mps 749 mmHg 85%
    21:00 0°C° 0.2 mm 3 mps 750 mmHg 86%
    22:00 0°C° 0.2 mm 3 mps 750 mmHg 87%
    23:00 0°C° 0.1 mm 3 mps 750 mmHg 88%
    Show more